Regional Weather Roundup
Issued by NWS

Home | Current Version | Previous Version | Text Only | Print | Product List | Glossary Off
Versions: 1 2 3 4 5 6 7 8 9 10 11 12 13 14 15 16 17 18 19 20 21 22 23 24 25 26 27 28 29 30 31 32 33 34 35 36 37 38 39 40 41 42 43 44 45 46 47 48 49 50

000
ASUS43 KOAX 241710
RWRNE

WEATHER ROUNDUP FOR NEBRASKA
NATIONAL WEATHER SERVICE OMAHA NE
1200 PM CDT SUN MAY 24 2015

NOTES: SATELLITE DATA IS BEING USED TO AUGMENT CLOUD COVER ABOVE
       12000 FEET.
       "FAIR" INDICATES FEW OR NO CLOUDS BELOW 12,000 FEET WITH NO
       SIGNIFICANT WEATHER AND/OR OBSTRUCTIONS TO VISIBILITY.

  * THESE STATIONS DO NOT REPORT WEATHER SUCH AS RAIN...SNOW OR FOG.

NEZ001>004-019>022-054>056-241800-
NEBRASKA PANHANDLE

CITY           SKY/WX    TMP DP  RH WIND       PRES   REMARKS
SCOTTSBLUFF    PTSUNNY   60  51  72 E6        29.88F
ALLIANCE       CLOUDY    58  52  80 E3        29.88S
CHADRON        PTSUNNY   60  53  77 NE10      29.88F
KIMBALL          N/A    N/A N/A N/A MISG        N/A
SIDNEY         CLOUDY    54  49  83 E3        29.91S
$$

NEZ057>060-069>072-079>082-241800-
SOUTHWEST NEBRASKA

CITY           SKY/WX    TMP DP  RH WIND       PRES   REMARKS
NORTH PLATTE   CLOUDY    62  54  74 S5        29.88F
IMPERIAL       PTSUNNY   64  54  69 E7        29.87F
LEXINGTON      CLOUDY    62  57  85 W3        29.87S
MCCOOK         CLOUDY    65  56  72 VRB3      29.86F
OGALLALA       CLOUDY    61  54  78 S5        29.88S
$$

NEZ005>010-023>029-035>040-094-241800-
NORTH CENTRAL NEBRASKA

CITY           SKY/WX    TMP DP  RH WIND       PRES   REMARKS
VALENTINE      CLOUDY    59  56  89 E10       29.89S
AINSWORTH      RAIN      59  58  98 E9        29.90R
BROKEN BOW     CLOUDY    63  57  81 CALM      29.87S
O`NEILL        CLOUDY    63  61  94 NE7       29.88S
ORD            CLOUDY    62  57  83 N3        29.85S
THEDFORD       CLOUDY    60  58  93 E3        29.89S
$$

NEZ041-046>049-061>064-073>077-083>087-241800-
SOUTH CENTRAL NEBRASKA

CITY           SKY/WX    TMP DP  RH WIND       PRES   REMARKS
GRAND ISLAND   CLOUDY    66  57  72 CALM      29.85S
AURORA         CLOUDY    65  60  83 W3        29.85R
HASTINGS       CLOUDY    64  57  78 SW3       29.86S
HEBRON         CLOUDY    66  60  79 SW7       29.86R
HOLDREGE       CLOUDY    62  56  83 SW8       29.86S
KEARNEY *      CLOUDY    63  55  77 CALM      29.86S
YORK           CLOUDY    66  59  77 CALM      29.85S
$$

NEZ011>018-030>034-042>045-241800-
NORTHEAST NEBRASKA

CITY           SKY/WX    TMP DP  RH WIND       PRES   REMARKS
NORFOLK        CLOUDY   N/A N/A N/A NE5       29.84F
ALBION         CLOUDY    62  59  90 NE6       29.85S
BLAIR          CLOUDY    62  60  93 S3        29.84S
COLUMBUS *     CLOUDY    63  55  77 NE5       29.88S
FREMONT        CLOUDY    64  61  91 CALM      29.84F FOG
TEKAMAH        LGT RAIN  64  61  90 S7        29.84R
WAYNE          CLOUDY    62  60  93 E8        29.86S
$$

NEZ050>053-065>068-078-088>093-241800-
SOUTHEAST NEBRASKA

CITY           SKY/WX    TMP DP  RH WIND       PRES   REMARKS
LINCOLN        CLOUDY    66  61  84 CALM      29.85S
OMAHA EPPLEY   CLOUDY    64  62  93 S6        29.83F FOG
BEATRICE       CLOUDY    67  61  81 W3        29.85S
FALLS CITY     CLOUDY    69  62  78 S9        29.86R
NEBRASKA CITY  CLOUDY    66  64  96 W7        29.84S
PLATTSMOUTH    CLOUDY    65  62  91 S3        29.84F
$$

NEZ044-045-051>053-067-241800-
OMAHA AREA

CITY           SKY/WX    TMP DP  RH WIND       PRES   REMARKS
OMAHA EPPLEY   CLOUDY    64  62  93 S6        29.83F FOG
BLAIR          CLOUDY    62  60  93 S3        29.84S
FREMONT        CLOUDY    64  61  91 CALM      29.84F FOG
MILLARD        CLOUDY    65  62  89 CALM      29.83F
OFFUTT AFB     CLOUDY    65  63  92 S6        29.82F
PLATTSMOUTH    CLOUDY    65  62  91 S3        29.84F
WAHOO          CLOUDY    64  61  90 CALM      29.84F
$$



USA.gov is the U.S. government's official web portal to all federal, state and local government web resources and services.